Location: Goettingen
(51.5300°N, 9.9433°E)
Time: 17:16:21
(UTC+02:00)

ISS - Pass Details

Date: 21 May 2018
Orbit: 402 x 407 km, 51.6° (Epoch: 27 May)

Event Time Altitude Azimuth Distance (km) Brightness Sun altitude
Rises 02:19:31 0° 277° (W) 2,320 -0.1 -17.0°
Reaches altitude 10° 02:21:36 10° 277° (W) 1,459 -1.1 -16.9°
Maximum altitude 02:24:52 86° 193° (SSW) 409 -4.0 -16.8°
Drops below altitude 10° 02:28:08 10° 100° (E) 1,457 -0.9 -16.6°
Sets 02:30:13 0° 100° (E) 2,315 0.1 -16.5°
